Stockton, CA

7:55 AM PST on December 08, 2019 (GMT -0800)
Stockton Metro

Weather History for KSCK - November, 2019

Change the Weather History Date:

Friday, November 15, 2019

  Actual Average Record
Temperature  
Mean Temperature 58 °F -  
Max Temperature 70 °F 64 °F 76 °F (1995)
Min Temperature 46 °F 42 °F 29 °F (1985)
Degree Days  
Heating Degree Days 7 12  
Month to date heating degree days 75 142  
Since 1 July heating degree days 155 239  
Cooling Degree Days 0 0  
Month to date cooling degree days 0 0  
Year to date cooling degree days 1686 1320  
Growing Degree Days 8 (Base 50)    
Moisture  
Dew Point 48 °F    
Average Humidity 68    
Maximum Humidity 89    
Minimum Humidity 47    
Precipitation  
Precipitation 0.00 in 0.05 in 0.74 in (1954)
Month to date precipitation 0.00 0.79  
Year to date precipitation 12.72 10.94  
Snow  
Snow 0.00 in - 0.00 in (2001)
Month to date snowfall 0.0  
Since 1 July snowfall 0.0  
Since 1 September snowfall 0.0  
Snow Depth 0.00 in    
Sea Level Pressure  
Sea Level Pressure 30.16 in    
Wind  
Wind Speed 4 mph (NW)    
Max Wind Speed 15 mph    
Max Gust Speed 20 mph    
Visibility 9 miles    
Events      
T = Trace of Precipitation, MM = Missing Value Source: NWS Daily Summary

Daily Weather History Graph

Daily Weather History Graph

Search for Another Location

Airport or City:

Astronomy

Nov. 15, 2019 Rise Set
Actual Time 6:45 AM PST 4:53 PM PST
Civil Twilight 6:17 AM PST 5:21 PM PST
Nautical Twilight 5:45 AM PST 5:53 PM PST
Astronomical Twilight 5:14 AM PST 6:24 PM PST
Moon 7:35 PM PST (11/15) 9:45 AM PST (11/15)
Length of Visible Light 11h 04m
Length of Day
10h 08m
Waning Gibbous, 89% of the Moon is Illuminated
Nov 15
Waning Gibbous
Nov 19
Last Quarter
Nov 26
New
Dec 3
First Quarter
Dec 11
Full

Hourly Weather History & Observations

Time (PST) Temp. Dew Point Humidity Pressure Visibility Wind Dir Wind Speed Gust Speed Precip Events Conditions
12:32 AM 52.0 °F 48.9 °F 89% 30.16 in 4.0 mi Calm Calm - N/A   Scattered Clouds
12:55 AM 51.1 °F 48.9 °F 92% 30.16 in 3.0 mi Calm Calm - N/A   Clear
1:55 AM 48.9 °F 45.0 °F 86% 30.17 in 4.0 mi North 3.5 mph - N/A   Clear
2:33 AM 51.1 °F 48.0 °F 89% 30.17 in 6.0 mi Calm Calm - N/A   Mostly Cloudy
2:55 AM 51.1 °F 48.0 °F 89% 30.16 in 6.0 mi NNE 3.5 mph - N/A   Mostly Cloudy
3:07 AM 51.1 °F 48.0 °F 89% 30.16 in 6.0 mi NNE 3.5 mph - N/A   Scattered Clouds
3:55 AM 50.0 °F 46.9 °F 89% 30.17 in 6.0 mi North 3.5 mph - N/A   Mostly Cloudy
4:55 AM 51.1 °F 48.0 °F 89% 30.18 in 8.0 mi NNE 3.5 mph - N/A   Mostly Cloudy
5:55 AM 52.0 °F 48.0 °F 86% 30.18 in 10.0 mi ENE 3.5 mph - N/A   Clear
6:55 AM 46.0 °F 43.0 °F 89% 30.19 in 10.0 mi Calm Calm - N/A   Partly Cloudy
7:55 AM 54.0 °F 48.0 °F 80% 30.19 in 10.0 mi Calm Calm - N/A   Clear
8:55 AM 59.0 °F 50.0 °F 72% 30.21 in 8.0 mi WNW 11.5 mph - N/A   Clear
9:55 AM 61.0 °F 50.0 °F 67% 30.21 in 10.0 mi WNW 10.4 mph - N/A   Clear
10:55 AM 63.0 °F 50.0 °F 63% 30.20 in 10.0 mi WNW 10.4 mph - N/A   Clear
11:55 AM 64.0 °F 48.9 °F 58% 30.18 in 10.0 mi NW 10.4 mph 17.3 mph N/A   Clear
12:55 PM 66.9 °F 48.9 °F 52% 30.15 in 10.0 mi WNW 8.1 mph - N/A   Clear
1:55 PM 68.0 °F 48.9 °F 50% 30.13 in 10.0 mi NW 12.7 mph - N/A   Clear
2:55 PM 69.1 °F 48.9 °F 49% 30.12 in 10.0 mi NW 8.1 mph - N/A   Clear
3:55 PM 68.0 °F 48.9 °F 50% 30.12 in 10.0 mi NNW 9.2 mph - N/A   Clear
4:55 PM 66.0 °F 48.0 °F 52% 30.12 in 10.0 mi NW 9.2 mph - N/A   Clear
5:55 PM 62.1 °F 46.9 °F 58% 30.12 in 10.0 mi NNW 4.6 mph - N/A   Clear
6:55 PM 59.0 °F 46.0 °F 62% 30.12 in 10.0 mi WNW 6.9 mph - N/A   Clear
7:55 PM 59.0 °F 46.9 °F 64% 30.13 in 10.0 mi WNW 5.8 mph - N/A   Clear
8:55 PM 57.0 °F 48.9 °F 74% 30.12 in 10.0 mi West 5.8 mph - N/A   Clear
9:55 PM 57.0 °F 51.1 °F 81% 30.14 in 10.0 mi WNW 9.2 mph - N/A   Clear
10:55 PM 54.0 °F 48.9 °F 83% 30.14 in 10.0 mi Calm Calm - N/A   Clear
11:55 PM 52.0 °F 48.0 °F 86% 30.13 in 10.0 mi Calm Calm - N/A   Clear